Home > Weather > Narva > Past weeks

Flag for Estonia Weather for the Past 2 Weeks in Narva, Estonia

Now
34 °F

Freezing rain. Low clouds.


Feels Like: 29 °F
Forecast: 33 / 35 °F
Wind: 6 mph from South

Location: Narva

Current Time: Feb 12, 2016 at 3:05:24 PM

Latest Report: Feb 12, 2016 at 2:00 PM


Visibility: 11 mi

Pressure: 29.38 "Hg

Humidity: 95%

Dew point: 33 °F

Location of NarvaLocation

Historic Weather in Narva — Graph

°F

Narva Temperature Yesterday

Maximum temperature yesterday: 38 °F (at 11:00 AM)
Minimum temperature yesterday: 33 °F (at 10:00 PM)
Average temperature yesterday: 37 °F

High & Low Weather Summary for the Past Weeks

 TemperatureHumidityPressure
High41 °F (Jan 28, 1:00 PM)98% (Jan 29, 2:00 AM)30.05 "Hg (Jan 29, 2:00 AM)
Low24 °F (Feb 6, 1:00 AM)73% (Feb 6, 4:00 AM)28.85 "Hg (Feb 2, 10:00 AM)
Average34 °F90%29.44 "Hg
* Reported Jan 28 1:00 PM — Feb 12 1:00 PM, Narva, Weather by CustomWeather, © 2016

Note: Actual official high and low records may vary slightly from our data, if they occured in-between our weather recording intervals... More about our weather records

Advertising

Narva Weather History for the Previous 24 Hours

 ConditionsComfort  
Time TempWeatherWind HumidityBarometerVisibility
1:00 PM
Fri, Feb 12
34 °FLight rain. Low clouds.5 mph95%29.38 "Hg12 mi
12:00 PM34 °FRain showers. Low clouds.7 mph93%29.38 "Hg12 mi
11:00 AM34 °FLow clouds.8 mph92%29.35 "Hg12 mi
10:00 AM34 °FSnow flurries. Overcast.9 mph90%29.35 "Hg6 mi
9:00 AM34 °FSnow flurries. Overcast.9 mph88%29.35 "Hg8 mi
8:00 AM34 °FOvercast.8 mph84%29.35 "Hg12 mi
7:00 AM34 °FOvercast.8 mph84%29.38 "Hg12 mi
6:00 AM34 °FFreezing rain. Overcast.8 mph84%29.38 "Hg12 mi
5:00 AM33 °FOvercast.8 mph84%29.38 "Hg12 mi
10:00 PM
Thu, Feb 11
33 °FLight rain. Low clouds.8 mph94%29.47 "Hg9 mi
9:00 PM34 °FRain showers. Low clouds.7 mph95%29.47 "Hg12 mi
8:00 PM35 °FRain showers. Overcast.8 mph92%29.47 "Hg12 mi
7:00 PM36 °FOvercast.7 mph90%29.47 "Hg12 mi
6:00 PM37 °FRain showers. Overcast.7 mph91%29.47 "Hg12 mi
5:00 PM37 °FLight rain. Overcast.7 mph92%29.47 "Hg12 mi
4:00 PM38 °FOvercast.7 mph90%29.44 "Hg12 mi
3:00 PM38 °FOvercast.6 mph91%29.44 "Hg12 mi
Weather by CustomWeather, © 2016

See weather overviewHow to use our weather pages